Lid_Strength_Index
4 4 2 3 9 9 11 11 8 8 8 7 7 6 6 7 7 8 5 4 4 5 4 3 1 1 0 0 0 1 2 2 3 2 1 0 -1 -1 -1 -1 -1 -1 -1 -2 -2 -2 -1 -1 -1
5 5 3 5 11 13 11 10 10 8 7 7 7 7 7 8 8 8 6 5 4 4 4 3 1 1 1 1 1 0 0 2 2 2 3 2 1 -0 -1 -1 -1 -1 -1 -1 -2 -1 -1 -1 -1
6 5 5 8 11 13 12 11 9 8 7 8 9 8 8 8 9 7 6 6 6 6 4 3 2 2 2 1 1 1 1 0 1 2 2 2 3 2 1 -0 -1 -1 -1 -1 -1 -2 -2 -1 -1
5 5 7 11 12 11 11 10 9 9 9 9 9 9 9 8 8 7 6 6 7 7 6 5 4 3 3 2 2 2 2 1 1 1 1 2 3 4 3 2 0 -1 -1 -1 -1 -1 -1 -1 -1
6 7 11 13 12 11 10 10 9 9 9 9 9 9 9 9 8 7 7 7 7 8 8 7 5 5 4 3 3 3 3 2 2 2 2 2 1 4 4 5 3 2 0 -1 -1 -1 -1 -1 -1
9 9 13 13 12 12 11 10 10 9 9 10 10 10 9 8 8 7 7 7 7 8 8 8 8 7 6 5 4 4 4 4 3 3 3 3 3 2 4 5 5 4 2 0 -0 -1 -1 -1 -1
10 11 13 13 13 13 12 10 10 9 10 10 10 10 10 9 7 7 7 7 8 8 8 8 8 8 8 7 6 6 5 5 5 5 5 5 5 5 4 3 5 5 5 3 1 0 -1 -1 -1
9 11 14 13 13 13 12 11 11 10 10 10 9 10 10 8 8 8 8 8 8 8 8 9 8 8 8 8 8 8 7 7 6 6 6 6 6 5 5 5 4 4 5 5 4 2 0 -0 -1
10 13 14 13 14 12 12 12 11 11 11 11 10 10 10 8 8 9 9 9 9 9 9 9 9 9 9 8 9 9 9 8 8 7 7 7 6 6 6 6 5 4 3 5 5 3 1 0 0
11 13 13 12 12 12 12 12 11 12 11 11 10 10 10 9 9 9 9 9 9 9 10 9 9 10 9 9 8 8 9 8 8 8 8 7 6 6 6 6 6 5 5 4 4 4 4 3 -1
12 13 13 12 12 12 12 12 11 12 12 10 10 9 10 10 10 9 9 8 8 9 9 10 10 10 10 9 9 9 9 8 8 8 8 7 8 7 6 6 6 5 5 4 3 4 3 2 1
14 12 13 12 12 13 13 12 12 11 10 11 9 10 10 10 10 9 9 9 9 10 10 11 11 10 10 10 10 10 9 9 9 9 8 8 8 7 7 7 6 6 5 5 4 3 3 2 2
13 12 12 12 12 12 12 13 13 12 10 10 11 11 10 10 10 9 9 9 9 10 11 11 11 11 11 11 10 10 10 10 10 9 9 9 9 8 7 7 6 6 6 5 5 4 3 3 2
12 12 12 11 12 12 13 13 13 11 11 11 11 11 11 10 10 10 10 10 10 10 11 11 12 12 12 11 11 11 11 10 10 9 9 9 9 8 8 7 7 6 6 6 5 5 4 4 3
12 14 12 12 12 13 12 14 14 11 11 12 12 11 11 11 11 10 10 10 10 11 11 12 12 12 12 12 12 11 11 11 10 10 9 9 9 8 8 7 7 7 6 6 5 5 4 4 3
13 14 14 13 12 12 13 13 11 11 12 12 11 11 11 11 11 11 11 11 11 12 12 13 13 13 12 12 12 12 11 10 10 9 9 9 9 8 8 8 8 7 7 6 6 6 5 5 4
14 14 15 14 12 13 13 13 10 12 12 11 11 11 11 11 12 12 11 12 12 12 13 14 14 13 13 12 11 11 10 10 10 9 9 9 8 8 8 8 7 7 6 6 6 6 5 5 4
14 15 15 15 13 14 13 14 11 10 11 11 11 11 11 11 11 12 13 13 13 13 14 14 14 13 12 11 11 11 10 10 10 10 9 9 9 8 8 7 7 6 6 7 7 6 5 5 4
14 15 15 13 13 15 14 14 12 11 10 11 11 11 12 12 13 13 14 14 14 14 15 14 14 13 12 12 12 12 12 11 10 10 10 10 9 9 8 8 8 6 6 6 6 6 7 5 4
14 15 15 13 14 14 14 14 12 11 11 12 12 13 13 14 15 15 15 15 15 15 14 13 13 12 12 12 12 12 12 12 11 11 10 10 10 8 8 8 8 7 6 6 6 6 6 5 3
14 15 15 15 14 14 15 14 13 12 12 13 12 13 13 14 15 16 16 15 15 14 14 14 13 13 13 13 13 13 12 11 11 11 11 10 10 9 8 9 8 7 6 6 6 5 5 6 4
15 14 14 15 15 16 14 17 12 11 13 13 13 13 13 15 16 15 14 14 14 13 13 14 14 14 14 13 13 14 14 14 12 12 11 10 10 9 9 9 9 7 7 6 6 5 4 4 4
14 14 14 15 15 16 16 17 12 14 14 14 13 14 14 15 15 15 14 14 14 14 14 14 14 14 14 13 13 13 13 12 12 12 11 11 10 10 10 9 9 8 7 7 7 6 6 5 4
13 14 15 16 16 18 18 17 14 14 14 14 13 15 16 14 14 14 14 14 14 14 14 14 15 15 14 14 14 14 14 14 13 13 13 12 11 11 10 10 9 9 8 8 8 7 7 6 5
14 15 17 19 19 19 19 19 14 14 14 15 15 14 13 14 14 13 14 14 15 15 15 15 16 16 15 15 15 14 14 14 14 14 13 13 12 11 10 9 8 8 7 7 8 8 7 7 7
15 16 17 21 20 19 19 19 15 14 15 15 16 15 14 13 14 14 15 15 16 16 16 16 16 16 16 16 16 15 14 14 14 14 13 13 11 11 9 9 8 7 7 7 7 7 8 7 8
16 17 16 19 22 21 16 16 14 14 14 14 13 14 13 13 14 15 15 16 17 17 17 17 17 17 17 16 16 15 15 14 14 14 13 11 10 10 10 9 9 9 9 9 9 8 9 8 9
15 15 19 18 21 22 17 18 14 13 11 12 12 13 13 13 14 15 16 17 17 18 18 17 17 18 18 17 16 16 15 14 14 14 14 12 11 10 10 9 9 10 9 9 9 9 9 9 9
17 17 17 18 19 19 20 15 12 11 13 14 14 14 13 14 15 16 17 17 19 20 20 19 19 19 19 18 17 16 15 15 14 14 14 12 11 11 10 10 10 10 10 9 10 10 9 9 9
15 16 16 18 20 20 20 16 14 16 17 17 14 14 14 14 15 16 17 19 20 20 20 20 20 20 18 18 17 17 16 15 15 14 14 12 12 10 11 11 11 11 10 10 11 11 10 10 9